Change the Weather History Date:

Monday, February 11, 2013

  Actual Average Record
Temperature  
Mean Temperature 39 °F -  
Max Temperature 48 °F 33 °F 57 °F (2009)
Min Temperature 30 °F 15 °F -14 °F (2014)
Degree Days  
Heating Degree Days 26    
Moisture  
Dew Point 29 °F    
Average Humidity 75    
Maximum Humidity 93    
Minimum Humidity 64    
Precipitation  
Precipitation 0.03 in - - ()
Sea Level Pressure  
Sea Level Pressure 29.78 in    
Wind  
Wind Speed 17 mph (WSW)    
Max Wind Speed 31 mph    
Max Gust Speed 40 mph    
Visibility 10 miles    
Events Rain    
Averages and records for this station are not official NWS values.
T = Trace of Precipitation, MM = Missing Value Source: NWS Daily Summary

Daily Weather History Graph

Daily Weather History Graph

Search for Another Location

Airport or City:

Trip Planner

Search our weather history database for the weather conditions in past years. The results will help you decide how hot, cold, wet, or windy it might be!

Date:

Astronomy

Feb. 11, 2013 Rise Set
Actual Time 7:42 AM EST 6:12 PM EST
Civil Twilight 7:14 AM EST 6:41 PM EST
Nautical Twilight 6:41 AM EST 7:13 PM EST
Astronomical Twilight 6:09 AM EST 7:45 PM EST
Moon 8:05 AM EST (2/11) 8:10 PM EST (2/11)
Length of Visible Light 11h 26m
Length of Day
10h 29m
Waxing Crescent, 3% of the Moon is Illuminated
Feb 11
Waxing Crescent
Feb 17
First Quarter
Feb 25
Full
Mar 4
Last Quarter
Mar 11
New

Hourly Weather History & Observations

Time (EST) Temp. Windchill Dew Point Humidity Pressure Visibility Wind Dir Wind Speed Gust Speed Precip Events Conditions
12:15 AM 48.2 °F - 44.6 °F 87% 29.62 in 10.0 mi SSW 10.4 mph 20.7 mph N/A   Overcast
12:35 AM 48.2 °F - 44.6 °F 87% 29.62 in 10.0 mi SSW 10.4 mph 18.4 mph N/A   Overcast
12:55 AM 48.2 °F - 44.6 °F 87% 29.62 in 10.0 mi SSW 11.5 mph 17.3 mph N/A   Overcast
1:15 AM 48.2 °F - 44.6 °F 87% 29.61 in 10.0 mi SSW 6.9 mph 18.4 mph N/A   Overcast
1:35 AM 48.2 °F - 44.6 °F 87% 29.61 in 10.0 mi SSW 11.5 mph 20.7 mph N/A   Overcast
1:55 AM 48.2 °F - 44.6 °F 87% 29.61 in 10.0 mi SSW 10.4 mph 19.6 mph N/A   Overcast
2:15 AM 46.4 °F 41.9 °F 44.6 °F 93% 29.61 in 10.0 mi SSW 9.2 mph - N/A   Overcast
2:35 AM 46.4 °F 41.9 °F 44.6 °F 93% 29.61 in 10.0 mi SSW 9.2 mph 18.4 mph N/A   Overcast
2:55 AM 46.4 °F 42.9 °F 44.6 °F 93% 29.60 in 10.0 mi SSW 6.9 mph 17.3 mph N/A   Scattered Clouds
3:15 AM 46.4 °F 41.1 °F 42.8 °F 87% 29.60 in 5.0 mi SSW 11.5 mph 21.9 mph 0.02 in Rain Rain
3:35 AM 44.6 °F 38.1 °F 41.0 °F 87% 29.61 in 10.0 mi West 13.8 mph - 0.02 in Rain Light Rain
3:55 AM 44.6 °F 36.6 °F 35.6 °F 71% 29.61 in 10.0 mi WSW 19.6 mph 27.6 mph 0.02 in   Overcast
4:15 AM 44.6 °F 36.9 °F 35.6 °F 71% 29.61 in 10.0 mi WSW 18.4 mph 32.2 mph N/A   Overcast
4:35 AM 42.8 °F 34.3 °F 33.8 °F 70% 29.62 in 10.0 mi West 19.6 mph 33.4 mph N/A   Overcast
4:55 AM 41.0 °F 32.5 °F 33.8 °F 76% 29.63 in 10.0 mi WSW 17.3 mph 32.2 mph 0.01 in   Overcast
5:15 AM 41.0 °F 30.7 °F 32.0 °F 70% 29.64 in 10.0 mi WSW 25.3 mph 36.8 mph N/A   Overcast
5:35 AM 39.2 °F 29.6 °F 32.0 °F 75% 29.65 in 10.0 mi WSW 19.6 mph 29.9 mph N/A   Overcast
5:55 AM 39.2 °F 29.8 °F 32.0 °F 75% 29.65 in 10.0 mi WSW 18.4 mph 32.2 mph N/A   Overcast
6:15 AM 39.2 °F 29.3 °F 32.0 °F 75% 29.65 in 10.0 mi WSW 20.7 mph 29.9 mph N/A   Overcast
6:35 AM 37.4 °F 26.4 °F 32.0 °F 81% 29.66 in 10.0 mi WSW 23.0 mph 33.4 mph N/A   Overcast
6:55 AM 37.4 °F 27.2 °F 32.0 °F 81% 29.67 in 10.0 mi WSW 19.6 mph 36.8 mph N/A   Overcast
7:15 AM 35.6 °F 24.5 °F 30.2 °F 81% 29.68 in 10.0 mi WSW 20.7 mph 28.8 mph N/A   Overcast
7:35 AM 35.6 °F 22.3 °F 28.4 °F 75% 29.69 in 10.0 mi WSW 31.1 mph 36.8 mph N/A   Overcast
7:55 AM 35.6 °F 25.5 °F 28.4 °F 75% 29.70 in 10.0 mi WSW 17.3 mph 29.9 mph N/A   Overcast
8:15 AM 33.8 °F 21.6 °F 28.4 °F 81% 29.71 in 10.0 mi West 23.0 mph 39.1 mph N/A   Overcast
8:35 AM 33.8 °F 22.2 °F 26.6 °F 75% 29.72 in 10.0 mi West 20.7 mph 28.8 mph N/A   Overcast
8:55 AM 33.8 °F 22.2 °F 26.6 °F 75% 29.73 in 10.0 mi WSW 20.7 mph 39.1 mph N/A   Overcast
9:15 AM 33.8 °F 20.1 °F 24.8 °F 70% 29.74 in 10.0 mi West 29.9 mph 40.3 mph N/A   Overcast
9:35 AM 33.8 °F 21.6 °F 23.0 °F 65% 29.75 in 10.0 mi West 23.0 mph 35.7 mph N/A   Overcast
9:55 AM 33.8 °F 22.8 °F 24.8 °F 70% 29.75 in 10.0 mi WSW 18.4 mph 28.8 mph N/A   Overcast
10:15 AM 32.0 °F 19.5 °F 24.8 °F 75% 29.75 in 10.0 mi WSW 21.9 mph 31.1 mph N/A   Overcast
10:35 AM 32.0 °F 19.8 °F 26.6 °F 80% 29.76 in 10.0 mi West 20.7 mph 29.9 mph N/A   Overcast
10:55 AM 32.0 °F 20.8 °F 24.8 °F 75% 29.76 in 10.0 mi WSW 17.3 mph 34.5 mph N/A   Overcast
11:15 AM 32.0 °F 18.9 °F 24.8 °F 75% 29.77 in 10.0 mi West 24.2 mph 32.2 mph N/A   Overcast
11:35 AM 32.0 °F 19.8 °F 24.8 °F 75% 29.78 in 10.0 mi WSW 20.7 mph 31.1 mph N/A   Overcast
11:55 AM 32.0 °F 19.8 °F 26.6 °F 80% 29.78 in 10.0 mi WSW 20.7 mph 27.6 mph N/A   Overcast
12:15 PM 33.8 °F 21.3 °F 23.0 °F 65% 29.78 in 10.0 mi WSW 24.2 mph 38.0 mph N/A   Overcast
12:35 PM 33.8 °F 21.6 °F 24.8 °F 70% 29.78 in 10.0 mi WSW 23.0 mph 28.8 mph N/A   Overcast
12:55 PM 32.0 °F 20.8 °F 26.6 °F 80% 29.79 in 10.0 mi WSW 17.3 mph 38.0 mph N/A   Overcast
1:15 PM 32.0 °F 20.1 °F 26.6 °F 80% 29.79 in 10.0 mi West 19.6 mph 29.9 mph N/A   Overcast
1:35 PM 33.8 °F 21.0 °F 23.0 °F 65% 29.80 in 10.0 mi WSW 25.3 mph 40.3 mph N/A   Overcast
1:55 PM 33.8 °F 21.9 °F 23.0 °F 65% 29.80 in 10.0 mi WSW 21.9 mph 33.4 mph N/A   Overcast
2:15 PM 33.8 °F 21.6 °F 24.8 °F 70% 29.81 in 10.0 mi WSW 23.0 mph 33.4 mph N/A   Overcast
2:35 PM 33.8 °F 20.8 °F 24.8 °F 70% 29.81 in 10.0 mi West 26.5 mph 34.5 mph N/A   Overcast
2:55 PM 33.8 °F 21.3 °F 24.8 °F 70% 29.81 in 10.0 mi WSW 24.2 mph 35.7 mph N/A   Overcast
3:15 PM 33.8 °F 20.3 °F 24.8 °F 70% 29.82 in 10.0 mi WSW 28.8 mph 38.0 mph N/A   Overcast
3:35 PM 32.0 °F 18.6 °F 24.8 °F 75% 29.83 in 10.0 mi West 25.3 mph 36.8 mph N/A   Overcast
3:55 PM 32.0 °F 18.6 °F 24.8 °F 75% 29.84 in 10.0 mi WSW 25.3 mph 34.5 mph N/A   Overcast
4:15 PM 32.0 °F 20.1 °F 24.8 °F 75% 29.86 in 10.0 mi West 19.6 mph 34.5 mph N/A   Overcast
4:35 PM 32.0 °F 18.6 °F 24.8 °F 75% 29.86 in 10.0 mi West 25.3 mph 32.2 mph N/A   Overcast
4:55 PM 32.0 °F 19.8 °F 24.8 °F 75% 29.87 in 10.0 mi West 20.7 mph 26.5 mph N/A   Overcast
5:55 PM 32.0 °F 19.8 °F 23.0 °F 69% 29.89 in 10.0 mi West 20.7 mph 33.4 mph N/A   Overcast
6:15 PM 32.0 °F 21.2 °F 23.0 °F 69% 29.90 in 10.0 mi West 16.1 mph 34.5 mph N/A   Overcast
6:35 PM 32.0 °F 20.5 °F 24.8 °F 75% 29.90 in 10.0 mi WSW 18.4 mph 24.2 mph N/A   Overcast
6:55 PM 32.0 °F 20.8 °F 24.8 °F 75% 29.92 in 10.0 mi West 17.3 mph 28.8 mph N/A   Overcast
7:15 PM 32.0 °F 20.1 °F 24.8 °F 75% 29.92 in 10.0 mi West 19.6 mph 25.3 mph N/A   Overcast
7:35 PM 32.0 °F 20.8 °F 24.8 °F 75% 29.93 in 10.0 mi West 17.3 mph 24.2 mph N/A   Overcast
7:55 PM 32.0 °F 20.1 °F 23.0 °F 69% 29.93 in 10.0 mi West 19.6 mph 27.6 mph N/A   Overcast
8:15 PM 32.0 °F 21.6 °F 23.0 °F 69% 29.93 in 10.0 mi West 15.0 mph 23.0 mph N/A   Overcast
8:35 PM 32.0 °F 19.2 °F 21.2 °F 64% 29.94 in 10.0 mi West 23.0 mph 38.0 mph N/A   Overcast
8:55 PM 32.0 °F 19.5 °F 23.0 °F 69% 29.95 in 10.0 mi West 21.9 mph 28.8 mph N/A   Overcast
9:15 PM 32.0 °F 19.2 °F 23.0 °F 69% 29.95 in 10.0 mi West 23.0 mph 28.8 mph N/A   Overcast
9:35 PM 32.0 °F 20.1 °F 23.0 °F 69% 29.95 in 10.0 mi West 19.6 mph 27.6 mph N/A   Overcast
9:55 PM 32.0 °F 20.1 °F 23.0 °F 69% 29.96 in 10.0 mi West 19.6 mph 26.5 mph N/A   Overcast
10:15 PM 32.0 °F 19.8 °F 23.0 °F 69% 29.96 in 10.0 mi West 20.7 mph 26.5 mph N/A   Overcast
10:35 PM 32.0 °F 20.1 °F 23.0 °F 69% 29.96 in 10.0 mi West 19.6 mph 25.3 mph N/A   Overcast
10:55 PM 32.0 °F 21.2 °F 23.0 °F 69% 29.97 in 10.0 mi West 16.1 mph 23.0 mph N/A   Overcast
11:15 PM 32.0 °F 21.6 °F 23.0 °F 69% 29.98 in 10.0 mi West 15.0 mph 25.3 mph N/A   Overcast
11:35 PM 30.2 °F 18.9 °F 23.0 °F 75% 29.98 in 10.0 mi West 16.1 mph 23.0 mph N/A   Overcast
11:55 PM 30.2 °F 19.8 °F 23.0 °F 75% 29.98 in 10.0 mi West 13.8 mph 23.0 mph N/A   Overcast